SCP
0 0 0 0 0 0 0 0 0 0 0 0 0 0 0 0 0 0 0 0 0 0 0 0 0 0 0 0 0 0 0 0 0 0 0 0 0 0 0 0 0 0 0
0 0 0 0 0 0 0 0 0 0 0 0 0 0 0 0 0 0 0 0 0 0 0 0 0 0 0 0 0 0 0 0 0 0 0 0 0 0 0 0 0 0 0
0 0 0 0 0 0 0 0 0 0 0 0 0 0 0 0 0 0 0 0 0 0 0 0 0 0 0 0 0 0 0 0 0 0 0 0 0 0 0 0 0 0 0
0 0 0 0 0 0 0 0 0 0 0 0 0 0 0 0 0 0 0 0 0 0 0 0 0 0 0 0 0 0 0 0 0 0 0 0 0 0 0 0 0 0 0
0 0 0 0 0 0 0 0 0 0 0 0 0 0 0 0 0 0 0 0 0 0 0 0 0 0 0 0 0 0 0 0 0 0 0 0 0 0 0 0 0 0 0
0 0 0 0 0 0 0 0 0 0 0 0 0 0 0 0 0 0 0 0 0 0 0 0 0 0 0 0 0 0 0 0 0 0 0 0 0 0 0 0 0 0 0
0 0 0 0 0 0 0 0 0 0 0 0 0 0 0 0 0 0 0 0 0 0 0 0 0 0 0 0 0 0 0 0 0 0 0 0 0 0 0 0 0 0 0
0 0 0 0 0 0 0 0 0 0 0 0 0 0 0 0 0 0 0 0 0 0 0 0 0 0 0 0 0 0 0 0 0 0 0 0 0 0 0 0 0 0 0
0 0 0 0 0 0 0 0 0 0 0 0 0 0 0 0 0 0 0 0 0 0 0 0 0 0 0 0 0 0 0 0 0 0 0 0 0 0 0 0 0 0 0
0 0 0 0 0 0 0 0 0 0 0 0 0 0 0 0 0 0 0 0 0 0 0 0 0 0 0 0 0 0 0 0 0 0 0 0 0 0 0 0 0 0 0
0 0 0 0 0 0 0 0 0 0 0 0 0 0 0 0 0 0 0 0 0 0 0 0 0 0 0 0 0 0 0 0 0 0 0 0 0 0 0 0 0 0 0
0 0 0 0 0 0 0 0 0 0 0 0 0 0 0 0 0 0 0 0 0 0 0 0 0 0 0 0 0 0 0 0 0 0 0 0 0 0 0 0 0 0 0
0 0 0 0 0 0 0 0 0 0 0 0 0 0 0 0 0 0 0 0 0 0 0 0 0 0 0 0 0 0 0 0 0 0 0 0 0 0 0 0 0 0 0
0 0 0 0 0 0 0 0 0 0 0 0 0 0 0 0 0 0 0 0 0 0 0 0 0 0 0 0 0 0 0 0 0 0 0 0 0 0 0 0 0 0 0
0 0 0 0 0 0 0 0 0 0 0 0 0 0 0 0 0 0 0 0 0 0 0 0 0 0 0 0 0 0 0 0 0 0 0 0 0 0 0 0 0 0 0
0 0 0 0 0 0 0 0 0 0 0 0 0 0 0 0 0 0 0 0 0 0 0 0 0 0 0 0 0 0 0 0 0 0 0 0 0 0 0 0 0 0 0
0 0 0 0 0 0 0 0 0 0 0 0 0 0 0 0 0 0 0 0 0 0 0 0 0 0 0 0 0 0 0 0 0 0 0 0 0 0 0 0 0 0 0
0 0 0 0 0 0 0 0 0 0 0 0 0 0 0 0 0 0 0 0 0 0 0 0 0 0 0 0 0 0 0 0 0 0 0 0 0 0 0 0 0 0 0
0 0 0 0 0 0 0 0 0 0 0 0 0 0 0 0 0 0 0 0 0 0 0 0 0 0 0 0 0 0 0 0 0 0 0 0 0 0 0 0 0 0 0
0 0 0 0 0 0 0 0 0 0 0 0 0 0 0 0 0 0 0 0 0 0 0 0 0 0 0 0 0 0 0 0 0 0 0 0 0 0 0 0 0 0 0
0 0 0 0 0 0 0 0 0 0 0 0 0 0 0 0 0 0 0 0 0 0 0 0 0 0 0 0 0 0 0 0 0 0 0 0 0 0 0 0 0 0 0
0 0 0 0 0 0 0 0 0 0 0 0 0 0 0 0 0 0 0 0 0 0 0 0 0 0 0 0 0 0 0 0 0 0 0 0 0 0 0 0 0 0 0
0 0 0 0 0 0 0 0 0 0 0 0 0 0 0 0 0 0 0 0 0 0 0 0 0 0 0 0 0 0 0 0 0 0 0 0 0 0 0 0 0 0 0
0 0 0 0 0 0 0 0 0 0 0 0 0 0 0 0 0 0 0 0 0 0 0 0 0 0 0 0 0 0 0 0 0 0 0 0 0 0 0 0 0 0 0
0 0 0 0 0 0 0 0 0 0 0 0 0 0 0 0 0 0 0 0 0 0 0 0 0 0 0 0 0 0 0 0 0 0 0 0 0 0 0 0 0 0 0
0 0 0 0 0 0 0 0 0 0 0 0 0 0 0 0 0 0 0 0 0 0 0 0 0 0 0 0 0 0 0 0 0 0 0 0 0 0 0 0 0 0 0
Wind_Speed_500mb
27 28 25 27 21 17 12 13 12 13 16 17 19 19 21 24 25 26 25 20 22 27 35 33 34 31 33 39 40 41 42 48 50 50 49 51 51 52 53 53 53 52 53
33 36 32 35 32 23 15 16 15 14 17 22 22 23 24 25 23 23 24 20 18 19 18 18 19 24 32 37 39 38 40 47 50 50 50 51 52 53 55 55 55 55 56
42 37 33 39 35 28 18 20 21 21 19 26 27 27 24 23 23 21 20 18 16 15 13 15 19 24 31 35 35 35 40 44 44 44 45 49 52 55 55 58 60 59 60
49 46 44 41 48 33 24 23 26 28 27 32 32 30 28 25 23 20 18 15 14 13 13 17 18 21 24 26 29 35 37 38 40 45 49 50 52 54 58 61 60 60 61
59 56 55 52 49 41 32 30 32 33 39 40 37 34 30 27 23 19 15 12 11 11 12 15 17 18 19 22 26 30 34 38 42 45 48 52 55 56 57 57 59 60 62
61 61 60 65 54 50 40 37 40 45 45 45 43 38 33 28 22 17 12 8 5 6 9 11 12 16 18 21 24 26 31 35 40 44 47 48 51 53 56 57 59 61 63
66 65 60 67 54 57 46 42 47 55 55 52 48 42 35 27 22 17 12 7 3 1 5 8 11 14 18 21 23 26 29 33 38 42 44 48 51 54 58 57 59 62 65
67 68 64 65 54 59 51 51 55 64 60 58 51 39 24 21 23 21 17 11 6 5 4 6 10 15 18 20 22 25 28 33 37 40 43 48 54 57 59 59 61 63 67
69 70 71 70 65 64 56 57 62 68 68 69 59 27 17 16 32 26 21 17 14 9 5 7 11 14 16 19 22 24 27 31 36 38 43 48 53 58 62 64 62 64 67
76 72 75 83 69 59 58 61 66 69 69 68 66 53 25 23 18 20 30 24 19 13 9 10 13 13 14 17 21 24 26 30 33 36 41 47 53 59 65 67 63 67 72
70 75 66 69 59 60 64 65 69 74 69 68 65 58 42 32 27 17 19 32 27 18 15 15 14 14 14 19 22 24 27 31 33 37 42 48 54 59 65 67 73 77 75
76 75 75 68 62 65 68 66 69 71 70 66 62 50 45 41 37 25 16 24 19 22 19 19 17 16 16 20 24 25 28 32 34 38 42 50 56 61 66 71 76 83 89
83 81 79 70 65 68 69 69 71 73 70 65 60 53 45 41 30 32 21 25 22 23 22 22 20 17 19 23 27 29 31 34 37 41 45 52 57 62 68 74 81 86 90
77 75 71 71 68 72 71 72 73 73 70 62 57 52 47 39 30 26 20 18 17 17 21 23 19 18 22 27 32 34 37 38 41 45 49 54 58 64 71 77 82 85 85
74 70 74 71 72 73 73 75 75 72 67 62 57 50 42 34 28 22 17 15 14 15 17 20 19 20 27 31 36 40 42 45 47 50 54 56 60 67 72 75 82 84 78
73 74 75 75 76 76 80 79 75 71 68 63 55 47 39 32 25 20 14 12 18 18 18 20 23 26 29 33 40 43 47 51 53 56 60 63 63 68 70 77 80 82 75
76 79 78 75 76 80 83 80 75 72 68 61 54 46 38 31 23 13 15 25 20 20 21 25 28 31 33 37 43 49 52 57 61 65 67 71 67 71 71 78 81 82 73
79 79 82 80 81 84 86 83 80 74 67 61 53 47 38 29 18 18 18 24 23 23 24 27 34 36 39 43 48 54 58 63 68 72 75 78 76 68 78 84 82 82 76
80 84 86 88 88 89 91 85 77 72 66 58 51 45 38 27 22 11 25 27 27 28 29 32 40 43 46 49 54 59 63 68 72 78 80 85 67 82 87 89 87 83 79
80 85 87 89 90 92 91 86 80 73 65 58 52 44 33 29 17 21 31 30 31 32 34 39 45 48 52 55 60 64 67 65 74 80 83 69 80 83 88 91 89 87 82
79 81 87 91 93 95 95 91 83 75 68 63 56 44 40 31 21 30 36 33 35 37 40 47 50 53 57 58 61 66 73 75 74 76 71 64 80 84 79 84 82 88 83
81 82 88 94 97 99 98 90 83 77 71 65 56 48 42 31 30 39 40 40 43 42 46 51 54 59 61 62 65 69 71 75 63 65 75 100 80 76 79 77 93 91 77
81 82 86 93 97 99 98 92 84 77 72 68 61 46 46 42 35 46 43 50 51 49 51 54 60 61 64 63 69 75 73 71 72 68 78 105 89 86 82 95 98 90 64
86 84 88 92 97 101 99 90 82 75 71 65 61 52 61 49 46 48 51 59 57 57 56 59 63 66 69 71 74 70 69 75 80 78 65 89 81 101 88 100 100 63 66
87 90 90 93 100 101 93 87 81 75 69 66 60 65 64 62 56 60 57 63 63 64 61 61 63 67 69 68 60 57 67 74 78 81 55 75 67 76 105 97 55 56 94
83 86 88 92 94 85 86 84 79 73 69 69 67 74 70 62 62 59 60 61 68 66 66 68 67 67 67 64 60 58 62 62 67 75 49 63 63 56 65 80 69 78 92
Wind_Direction_500mb
227 220 225 227 209 189 228 263 202 189 170 156 146 138 130 123 118 111 105 98 90 84 81 76 68 54 45 54 47 34 37 20 20 17 15 13 15 13 9 6 2 357 357
235 227 225 230 209 198 220 267 225 203 184 166 162 151 142 129 121 118 115 108 93 84 72 51 42 35 45 48 48 44 37 17 9 7 7 7 7 7 6 7 6 1 359
235 237 232 237 227 209 214 252 233 216 200 171 166 155 145 139 134 128 121 109 93 77 65 48 28 27 46 52 47 28 5 3 10 10 9 8 6 6 6 3 3 3 359
233 236 233 229 219 212 216 239 243 219 202 178 170 162 157 148 143 135 121 104 85 69 49 47 45 33 32 22 8 357 5 16 14 13 10 6 5 3 0 358 357 358 356
233 233 238 234 223 223 223 242 241 221 198 182 176 168 160 159 152 138 122 99 74 52 39 35 28 15 10 6 13 21 29 19 11 8 6 4 3 3 3 3 2 358 356
231 232 233 236 219 219 222 237 233 207 198 187 177 170 168 167 158 144 130 111 78 44 27 17 7 5 13 16 16 16 12 7 5 4 4 4 5 5 3 4 1 357 354
225 228 234 231 225 211 224 237 223 208 194 191 183 171 170 170 166 161 160 171 164 27 359 352 355 2 3 6 6 5 1 2 3 2 4 7 6 5 3 2 359 355 352
224 227 225 216 229 210 225 232 225 203 201 194 191 175 166 181 186 186 189 190 208 247 291 327 347 351 355 359 0 358 358 359 360 2 5 4 2 1 0 359 356 352 347
225 225 226 226 226 224 234 234 220 213 206 197 196 182 172 196 189 197 198 204 216 228 261 308 323 335 349 351 347 349 350 354 357 359 360 359 357 356 356 354 350 346 342
226 218 230 233 224 230 231 228 220 216 215 210 204 207 208 204 181 185 207 211 217 222 249 283 302 320 332 337 341 340 343 349 351 352 351 350 351 351 351 349 344 341 339
222 228 227 230 230 232 229 222 219 215 215 217 212 216 220 214 208 192 187 209 215 223 244 264 282 296 312 327 330 331 337 342 342 342 343 345 346 347 346 341 338 335 333
222 222 219 223 231 230 226 224 221 217 215 217 220 228 232 218 216 208 183 190 203 224 239 253 266 282 300 317 319 323 328 331 331 333 336 338 341 341 337 333 331 330 330
218 222 223 226 228 227 222 221 216 214 213 217 224 227 224 221 230 218 210 195 200 223 236 246 257 274 294 309 313 317 318 321 323 325 330 334 334 332 329 327 327 327 326
228 226 229 227 226 225 221 217 213 212 214 220 218 221 219 219 212 209 211 202 197 222 238 253 260 268 294 309 310 311 313 315 317 320 324 326 327 326 324 324 324 325 322
227 230 228 228 225 223 217 212 212 213 214 215 215 214 212 211 208 210 212 217 221 219 229 250 262 281 299 307 309 310 308 309 312 316 318 320 323 321 321 324 324 322 319
228 228 227 226 224 220 215 212 212 211 212 211 210 209 206 204 203 207 217 268 248 237 235 256 270 286 298 305 307 307 307 308 310 313 317 319 320 318 323 325 324 321 319
228 230 225 224 225 220 213 211 210 210 209 208 205 203 200 197 198 196 273 259 249 250 255 269 276 286 295 301 305 308 311 313 316 317 317 316 319 318 324 327 327 322 318
229 228 226 223 221 218 213 210 209 208 208 207 205 200 196 189 200 254 257 254 256 260 266 275 285 291 296 301 306 309 312 316 317 316 317 315 318 319 325 330 327 323 321
227 226 226 225 220 216 213 211 210 210 209 207 204 198 190 203 253 225 251 254 260 267 273 281 287 294 297 302 306 309 312 313 314 316 316 314 314 322 328 328 328 324 325
230 229 229 226 222 218 214 211 209 208 207 203 199 194 201 236 214 233 251 255 263 271 279 284 287 293 297 303 304 307 307 309 309 313 315 311 318 324 325 326 326 324 328
233 232 230 224 220 217 215 212 210 207 205 202 197 196 221 243 216 240 251 260 268 274 281 284 288 292 296 298 300 302 303 307 308 314 314 311 315 320 321 320 323 322 328
232 231 229 225 220 217 216 214 212 208 205 204 201 206 235 253 224 242 253 262 269 275 280 282 287 288 292 294 296 299 302 307 307 307 307 309 315 315 319 316 321 322 327
232 233 230 226 222 219 215 213 210 209 208 204 204 218 260 255 225 245 256 265 267 274 278 281 282 285 291 295 297 299 302 299 297 301 305 305 313 313 314 317 321 321 324
229 233 234 229 223 219 215 212 211 208 208 208 215 239 267 253 236 247 255 264 271 275 280 284 287 291 289 291 291 294 298 298 298 303 309 298 308 310 313 317 319 320 324
231 231 232 229 223 218 214 212 212 210 208 213 226 251 266 261 249 244 248 261 270 274 278 281 284 285 287 289 291 286 283 294 299 303 295 291 300 307 311 317 313 314 325
233 233 232 226 222 216 215 215 214 213 213 218 242 255 268 268 254 259 253 263 268 275 280 284 285 286 287 289 290 288 293 292 293 296 300 291 297 308 309 310 306 320 322
Wind_Speed_850mb
27 28 25 27 21 17 12 13 12 13 16 17 19 19 21 24 25 26 25 20 22 27 35 33 34 31 33 39 40 41 42 48 50 50 49 51 51 52 53 53 53 52 53
33 36 32 35 32 23 15 16 15 14 17 22 22 23 24 25 23 23 24 20 18 19 18 18 19 24 32 37 39 38 40 47 50 50 50 51 52 53 55 55 55 55 56
42 37 33 39 35 28 18 20 21 21 19 26 27 27 24 23 23 21 20 18 16 15 13 15 19 24 31 35 35 35 40 44 44 44 45 49 52 55 55 58 60 59 60
49 46 44 41 48 33 24 23 26 28 27 32 32 30 28 25 23 20 18 15 14 13 13 17 18 21 24 26 29 35 37 38 40 45 49 50 52 54 58 61 60 60 61
59 56 55 52 49 41 32 30 32 33 39 40 37 34 30 27 23 19 15 12 11 11 12 15 17 18 19 22 26 30 34 38 42 45 48 52 55 56 57 57 59 60 62
61 61 60 65 54 50 40 37 40 45 45 45 43 38 33 28 22 17 12 8 5 6 9 11 12 16 18 21 24 26 31 35 40 44 47 48 51 53 56 57 59 61 63
66 65 60 67 54 57 46 42 47 55 55 52 48 42 35 27 22 17 12 7 3 1 5 8 11 14 18 21 23 26 29 33 38 42 44 48 51 54 58 57 59 62 65
67 68 64 65 54 59 51 51 55 64 60 58 51 39 24 21 23 21 17 11 6 5 4 6 10 15 18 20 22 25 28 33 37 40 43 48 54 57 59 59 61 63 67
69 70 71 70 65 64 56 57 62 68 68 69 59 27 17 16 32 26 21 17 14 9 5 7 11 14 16 19 22 24 27 31 36 38 43 48 53 58 62 64 62 64 67
76 72 75 83 69 59 58 61 66 69 69 68 66 53 25 23 18 20 30 24 19 13 9 10 13 13 14 17 21 24 26 30 33 36 41 47 53 59 65 67 63 67 72
70 75 66 69 59 60 64 65 69 74 69 68 65 58 42 32 27 17 19 32 27 18 15 15 14 14 14 19 22 24 27 31 33 37 42 48 54 59 65 67 73 77 75
76 75 75 68 62 65 68 66 69 71 70 66 62 50 45 41 37 25 16 24 19 22 19 19 17 16 16 20 24 25 28 32 34 38 42 50 56 61 66 71 76 83 89
83 81 79 70 65 68 69 69 71 73 70 65 60 53 45 41 30 32 21 25 22 23 22 22 20 17 19 23 27 29 31 34 37 41 45 52 57 62 68 74 81 86 90
77 75 71 71 68 72 71 72 73 73 70 62 57 52 47 39 30 26 20 18 17 17 21 23 19 18 22 27 32 34 37 38 41 45 49 54 58 64 71 77 82 85 85
74 70 74 71 72 73 73 75 75 72 67 62 57 50 42 34 28 22 17 15 14 15 17 20 19 20 27 31 36 40 42 45 47 50 54 56 60 67 72 75 82 84 78
73 74 75 75 76 76 80 79 75 71 68 63 55 47 39 32 25 20 14 12 18 18 18 20 23 26 29 33 40 43 47 51 53 56 60 63 63 68 70 77 80 82 75
76 79 78 75 76 80 83 80 75 72 68 61 54 46 38 31 23 13 15 25 20 20 21 25 28 31 33 37 43 49 52 57 61 65 67 71 67 71 71 78 81 82 73
79 79 82 80 81 84 86 83 80 74 67 61 53 47 38 29 18 18 18 24 23 23 24 27 34 36 39 43 48 54 58 63 68 72 75 78 76 68 78 84 82 82 76
80 84 86 88 88 89 91 85 77 72 66 58 51 45 38 27 22 11 25 27 27 28 29 32 40 43 46 49 54 59 63 68 72 78 80 85 67 82 87 89 87 83 79
80 85 87 89 90 92 91 86 80 73 65 58 52 44 33 29 17 21 31 30 31 32 34 39 45 48 52 55 60 64 67 65 74 80 83 69 80 83 88 91 89 87 82
79 81 87 91 93 95 95 91 83 75 68 63 56 44 40 31 21 30 36 33 35 37 40 47 50 53 57 58 61 66 73 75 74 76 71 64 80 84 79 84 82 88 83
81 82 88 94 97 99 98 90 83 77 71 65 56 48 42 31 30 39 40 40 43 42 46 51 54 59 61 62 65 69 71 75 63 65 75 100 80 76 79 77 93 91 77
81 82 86 93 97 99 98 92 84 77 72 68 61 46 46 42 35 46 43 50 51 49 51 54 60 61 64 63 69 75 73 71 72 68 78 105 89 86 82 95 98 90 64
86 84 88 92 97 101 99 90 82 75 71 65 61 52 61 49 46 48 51 59 57 57 56 59 63 66 69 71 74 70 69 75 80 78 65 89 81 101 88 100 100 63 66
87 90 90 93 100 101 93 87 81 75 69 66 60 65 64 62 56 60 57 63 63 64 61 61 63 67 69 68 60 57 67 74 78 81 55 75 67 76 105 97 55 56 94
83 86 88 92 94 85 86 84 79 73 69 69 67 74 70 62 62 59 60 61 68 66 66 68 67 67 67 64 60 58 62 62 67 75 49 63 63 56 65 80 69 78 92
Wind_Direction_850mb
227 220 225 227 209 189 228 263 202 189 170 156 146 138 130 123 118 111 105 98 90 84 81 76 68 54 45 54 47 34 37 20 20 17 15 13 15 13 9 6 2 357 357
235 227 225 230 209 198 220 267 225 203 184 166 162 151 142 129 121 118 115 108 93 84 72 51 42 35 45 48 48 44 37 17 9 7 7 7 7 7 6 7 6 1 359
235 237 232 237 227 209 214 252 233 216 200 171 166 155 145 139 134 128 121 109 93 77 65 48 28 27 46 52 47 28 5 3 10 10 9 8 6 6 6 3 3 3 359
233 236 233 229 219 212 216 239 243 219 202 178 170 162 157 148 143 135 121 104 85 69 49 47 45 33 32 22 8 357 5 16 14 13 10 6 5 3 0 358 357 358 356
233 233 238 234 223 223 223 242 241 221 198 182 176 168 160 159 152 138 122 99 74 52 39 35 28 15 10 6 13 21 29 19 11 8 6 4 3 3 3 3 2 358 356
231 232 233 236 219 219 222 237 233 207 198 187 177 170 168 167 158 144 130 111 78 44 27 17 7 5 13 16 16 16 12 7 5 4 4 4 5 5 3 4 1 357 354
225 228 234 231 225 211 224 237 223 208 194 191 183 171 170 170 166 161 160 171 164 27 359 352 355 2 3 6 6 5 1 2 3 2 4 7 6 5 3 2 359 355 352
224 227 225 216 229 210 225 232 225 203 201 194 191 175 166 181 186 186 189 190 208 247 291 327 347 351 355 359 0 358 358 359 360 2 5 4 2 1 0 359 356 352 347
225 225 226 226 226 224 234 234 220 213 206 197 196 182 172 196 189 197 198 204 216 228 261 308 323 335 349 351 347 349 350 354 357 359 360 359 357 356 356 354 350 346 342
226 218 230 233 224 230 231 228 220 216 215 210 204 207 208 204 181 185 207 211 217 222 249 283 302 320 332 337 341 340 343 349 351 352 351 350 351 351 351 349 344 341 339
222 228 227 230 230 232 229 222 219 215 215 217 212 216 220 214 208 192 187 209 215 223 244 264 282 296 312 327 330 331 337 342 342 342 343 345 346 347 346 341 338 335 333
222 222 219 223 231 230 226 224 221 217 215 217 220 228 232 218 216 208 183 190 203 224 239 253 266 282 300 317 319 323 328 331 331 333 336 338 341 341 337 333 331 330 330
218 222 223 226 228 227 222 221 216 214 213 217 224 227 224 221 230 218 210 195 200 223 236 246 257 274 294 309 313 317 318 321 323 325 330 334 334 332 329 327 327 327 326
228 226 229 227 226 225 221 217 213 212 214 220 218 221 219 219 212 209 211 202 197 222 238 253 260 268 294 309 310 311 313 315 317 320 324 326 327 326 324 324 324 325 322
227 230 228 228 225 223 217 212 212 213 214 215 215 214 212 211 208 210 212 217 221 219 229 250 262 281 299 307 309 310 308 309 312 316 318 320 323 321 321 324 324 322 319
228 228 227 226 224 220 215 212 212 211 212 211 210 209 206 204 203 207 217 268 248 237 235 256 270 286 298 305 307 307 307 308 310 313 317 319 320 318 323 325 324 321 319
228 230 225 224 225 220 213 211 210 210 209 208 205 203 200 197 198 196 273 259 249 250 255 269 276 286 295 301 305 308 311 313 316 317 317 316 319 318 324 327 327 322 318
229 228 226 223 221 218 213 210 209 208 208 207 205 200 196 189 200 254 257 254 256 260 266 275 285 291 296 301 306 309 312 316 317 316 317 315 318 319 325 330 327 323 321
227 226 226 225 220 216 213 211 210 210 209 207 204 198 190 203 253 225 251 254 260 267 273 281 287 294 297 302 306 309 312 313 314 316 316 314 314 322 328 328 328 324 325
230 229 229 226 222 218 214 211 209 208 207 203 199 194 201 236 214 233 251 255 263 271 279 284 287 293 297 303 304 307 307 309 309 313 315 311 318 324 325 326 326 324 328
233 232 230 224 220 217 215 212 210 207 205 202 197 196 221 243 216 240 251 260 268 274 281 284 288 292 296 298 300 302 303 307 308 314 314 311 315 320 321 320 323 322 328
232 231 229 225 220 217 216 214 212 208 205 204 201 206 235 253 224 242 253 262 269 275 280 282 287 288 292 294 296 299 302 307 307 307 307 309 315 315 319 316 321 322 327
232 233 230 226 222 219 215 213 210 209 208 204 204 218 260 255 225 245 256 265 267 274 278 281 282 285 291 295 297 299 302 299 297 301 305 305 313 313 314 317 321 321 324
229 233 234 229 223 219 215 212 211 208 208 208 215 239 267 253 236 247 255 264 271 275 280 284 287 291 289 291 291 294 298 298 298 303 309 298 308 310 313 317 319 320 324
231 231 232 229 223 218 214 212 212 210 208 213 226 251 266 261 249 244 248 261 270 274 278 281 284 285 287 289 291 286 283 294 299 303 295 291 300 307 311 317 313 314 325
233 233 232 226 222 216 215 215 214 213 213 218 242 255 268 268 254 259 253 263 268 275 280 284 285 286 287 289 290 288 293 292 293 296 300 291 297 308 309 310 306 320 322